• In Belarus
  • List of Countries
  • For 7 days
  • Water Temperature
  • Satellite Maps
  • Weather Map
  • Weather Widgets
  • user-avatar
    Login

    Hourly Weather Tiwi

    Today, 18 January, Thursday

    Time Temperature Precipitation Wind Pressure Humidity
    00:00 +18°C° 0 mm 3 mps 753 mmHg 69%
    01:00 +17°C° 0 mm 3 mps 753 mmHg 70%
    02:00 +17°C° 0 mm 4 mps 753 mmHg 72%
    03:00 +15°C° 0 mm 4 mps 753 mmHg 73%
    04:00 +15°C° 0 mm 4 mps 753 mmHg 78%
    05:00 +15°C° 0 mm 4 mps 753 mmHg 79%
    06:00 +14°C° 0 mm 4 mps 754 mmHg 80%
    07:00 +14°C° 0 mm 4 mps 754 mmHg 80%
    08:00 +17°C° 0 mm 4 mps 754 mmHg 71%
    09:00 +18°C° 0 mm 4 mps 754 mmHg 61%
    10:00 +20°C° 0 mm 4 mps 755 mmHg 51%
    11:00 +21°C° 0 mm 4 mps 754 mmHg 48%
    12:00 +22°C° 0 mm 4 mps 754 mmHg 44%
    13:00 +23°C° 0 mm 4 mps 754 mmHg 40%
    14:00 +23°C° 0 mm 4 mps 754 mmHg 40%
    15:00 +23°C° 0 mm 4 mps 753 mmHg 40%
    16:00 +23°C° 0 mm 4 mps 753 mmHg 41%
    17:00 +22°C° 0 mm 4 mps 753 mmHg 45%
    18:00 +21°C° 0 mm 4 mps 754 mmHg 49%
    19:00 +20°C° 0 mm 4 mps 754 mmHg 53%
    20:00 +19°C° 0 mm 3 mps 754 mmHg 56%
    21:00 +19°C° 0 mm 3 mps 754 mmHg 60%
    22:00 +18°C° 0 mm 3 mps 754 mmHg 63%
    23:00 +17°C° 0 mm 3 mps 754 mmHg 66%

    Tomorrow, 19 January, Friday

    Time Temperature Precipitation Wind Pressure Humidity
    00:00 +17°C° 0 mm 2 mps 755 mmHg 68%
    01:00 +16°C° 0 mm 2 mps 755 mmHg 70%
    02:00 +16°C° 0 mm 2 mps 754 mmHg 71%
    03:00 +16°C° 0 mm 2 mps 754 mmHg 72%
    04:00 +15°C° 0 mm 2 mps 754 mmHg 73%
    05:00 +15°C° 0 mm 1 mps 755 mmHg 74%
    06:00 +15°C° 0 mm 1 mps 755 mmHg 76%
    07:00 +15°C° 0 mm 1 mps 755 mmHg 78%
    08:00 +18°C° 0 mm 1 mps 756 mmHg 68%
    09:00 +20°C° 0 mm 1 mps 756 mmHg 59%
    10:00 +22°C° 0 mm 1 mps 757 mmHg 50%
    11:00 +23°C° 0 mm 1 mps 756 mmHg 47%
    12:00 +24°C° 0 mm 2 mps 756 mmHg 44%
    13:00 +25°C° 0 mm 2 mps 756 mmHg 41%
    14:00 +25°C° 0 mm 2 mps 755 mmHg 41%
    15:00 +25°C° 0 mm 2 mps 755 mmHg 41%
    16:00 +25°C° 0 mm 2 mps 755 mmHg 41%
    17:00 +24°C° 0 mm 2 mps 755 mmHg 46%
    18:00 +23°C° 0 mm 2 mps 756 mmHg 50%
    19:00 +21°C° 0 mm 2 mps 756 mmHg 54%
    20:00 +21°C° 0 mm 2 mps 756 mmHg 57%
    21:00 +20°C° 0 mm 2 mps 756 mmHg 60%
    22:00 +20°C° 0 mm 2 mps 757 mmHg 63%
    23:00 +19°C° 0 mm 2 mps 756 mmHg 65%

    Day after tomorrow, 20 January, Saturday

    Time Temperature Precipitation Wind Pressure Humidity
    00:00 +19°C° 0 mm 2 mps 756 mmHg 67%
    01:00 +18°C° 0 mm 2 mps 756 mmHg 69%
    02:00 +18°C° 0 mm 2 mps 756 mmHg 72%
    03:00 +18°C° 0 mm 2 mps 756 mmHg 75%
    04:00 +17°C° 0 mm 2 mps 756 mmHg 79%
    05:00 +17°C° 0 mm 2 mps 756 mmHg 80%
    06:00 +17°C° 0 mm 2 mps 756 mmHg 80%
    07:00 +17°C° 0 mm 2 mps 756 mmHg 81%
    08:00 +19°C° 0 mm 2 mps 756 mmHg 70%
    09:00 +21°C° 0 mm 2 mps 757 mmHg 58%
    10:00 +24°C° 0 mm 2 mps 757 mmHg 46%
    11:00 +25°C° 0 mm 2 mps 757 mmHg 37%
    12:00 +26°C° 0 mm 2 mps 756 mmHg 28%
    13:00 +27°C° 0 mm 2 mps 756 mmHg 19%
    14:00 +27°C° 0 mm 2 mps 755 mmHg 18%
    15:00 +27°C° 0 mm 2 mps 755 mmHg 16%
    16:00 +27°C° 0 mm 2 mps 754 mmHg 15%
    17:00 +26°C° 0 mm 2 mps 755 mmHg 17%
    18:00 +24°C° 0 mm 1 mps 755 mmHg 19%
    19:00 +22°C° 0 mm 1 mps 755 mmHg 21%
    20:00 +20°C° 0 mm 2 mps 755 mmHg 20%
    21:00 +19°C° 0 mm 2 mps 755 mmHg 19%
    22:00 +19°C° 0 mm 2 mps 755 mmHg 18%
    23:00 +18°C° 0 mm 3 mps 755 mmHg 18%

    21 January, Sunday

    Time Temperature Precipitation Wind Pressure Humidity
    00:00 +18°C° 0 mm 3 mps 755 mmHg 17%
    01:00 +18°C° 0 mm 3 mps 754 mmHg 17%
    02:00 +17°C° 0 mm 4 mps 754 mmHg 25%
    03:00 +17°C° 0 mm 4 mps 754 mmHg 33%
    04:00 +16°C° 0 mm 5 mps 754 mmHg 41%
    05:00 +17°C° 0.1 mm 5 mps 754 mmHg 53%
    06:00 +17°C° 0.1 mm 6 mps 754 mmHg 64%
    07:00 +19°C° 0.1 mm 6 mps 754 mmHg 76%
    08:00 +20°C° 0 mm 7 mps 754 mmHg 66%
    09:00 +21°C° 0 mm 7 mps 754 mmHg 56%
    10:00 +21°C° 0 mm 8 mps 755 mmHg 45%
    11:00 +22°C° 0 mm 8 mps 754 mmHg 42%
    12:00 +22°C° 0 mm 8 mps 753 mmHg 39%
    13:00 +23°C° 0 mm 8 mps 753 mmHg 36%
    14:00 +22°C° 0 mm 8 mps 752 mmHg 37%
    15:00 +22°C° 0 mm 8 mps 752 mmHg 38%
    16:00 +21°C° 0 mm 7 mps 752 mmHg 38%
    17:00 +21°C° 0 mm 7 mps 752 mmHg 41%
    18:00 +20°C° 0 mm 6 mps 752 mmHg 44%
    19:00 +19°C° 0 mm 6 mps 753 mmHg 46%
    20:00 +19°C° 0 mm 5 mps 753 mmHg 49%
    21:00 +19°C° 0 mm 5 mps 754 mmHg 51%
    22:00 +17°C° 0 mm 5 mps 754 mmHg 53%
    23:00 +17°C° 0 mm 5 mps 754 mmHg 56%

    22 January, Monday

    Time Temperature Precipitation Wind Pressure Humidity
    00:00 +16°C° 0 mm 5 mps 754 mmHg 59%
    01:00 +17°C° 0 mm 4 mps 753 mmHg 62%
    02:00 +17°C° 0 mm 4 mps 753 mmHg 65%
    03:00 +15°C° 0 mm 4 mps 753 mmHg 68%
    04:00 +16°C° 0 mm 3 mps 753 mmHg 70%
    05:00 +14°C° 0 mm 3 mps 754 mmHg 74%
    06:00 +14°C° 0 mm 3 mps 754 mmHg 77%
    07:00 +14°C° 0 mm 2 mps 754 mmHg 81%
    08:00 +16°C° 0 mm 2 mps 755 mmHg 69%
    09:00 +19°C° 0 mm 2 mps 755 mmHg 57%
    10:00 +21°C° 0 mm 2 mps 756 mmHg 44%
    11:00 +23°C° 0 mm 2 mps 755 mmHg 38%
    12:00 +24°C° 0 mm 2 mps 755 mmHg 32%
    13:00 +25°C° 0 mm 2 mps 754 mmHg 25%
    14:00 +25°C° 0 mm 2 mps 754 mmHg 25%
    15:00 +25°C° 0 mm 2 mps 754 mmHg 25%
    16:00 +25°C° 0 mm 2 mps 753 mmHg 25%
    17:00 +24°C° 0 mm 2 mps 754 mmHg 30%
    18:00 +23°C° 0 mm 1 mps 754 mmHg 34%
    19:00 +21°C° 0 mm 1 mps 754 mmHg 39%
    20:00 +21°C° 0 mm 1 mps 755 mmHg 42%
    21:00 +20°C° 0 mm 1 mps 755 mmHg 45%
    22:00 +20°C° 0 mm 1 mps 755 mmHg 48%
    23:00 +19°C° 0 mm 1 mps 755 mmHg 51%

    23 January, Tuesday

    Time Temperature Precipitation Wind Pressure Humidity
    00:00 +19°C° 0 mm 1 mps 754 mmHg 54%
    01:00 +18°C° 0 mm 1 mps 754 mmHg 57%
    02:00 +18°C° 0 mm 1 mps 754 mmHg 60%
    03:00 +16°C° 0 mm 1 mps 754 mmHg 62%
    04:00 +16°C° 0 mm 1 mps 754 mmHg 64%
    05:00 +16°C° 0 mm 1 mps 754 mmHg 66%
    06:00 +15°C° 0 mm 1 mps 754 mmHg 67%
    07:00 +15°C° 0 mm 1 mps 755 mmHg 68%
    08:00 +19°C° 0 mm 1 mps 755 mmHg 57%
    09:00 +21°C° 0 mm 1 mps 755 mmHg 47%
    10:00 +23°C° 0 mm 2 mps 755 mmHg 36%
    11:00 +24°C° 0 mm 2 mps 755 mmHg 32%
    12:00 +25°C° 0 mm 2 mps 754 mmHg 27%
    13:00 +26°C° 0 mm 2 mps 754 mmHg 22%
    14:00 +26°C° 0 mm 2 mps 753 mmHg 24%
    15:00 +26°C° 0 mm 2 mps 753 mmHg 26%
    16:00 +26°C° 0 mm 2 mps 753 mmHg 27%
    17:00 +25°C° 0 mm 1 mps 753 mmHg 33%
    18:00 +24°C° 0 mm 1 mps 753 mmHg 39%
    19:00 +22°C° 0 mm 1 mps 754 mmHg 45%
    20:00 +21°C° 0 mm 1 mps 754 mmHg 48%
    21:00 +21°C° 0 mm 1 mps 754 mmHg 51%
    22:00 +20°C° 0 mm 1 mps 754 mmHg 54%
    23:00 +18°C° 0 mm 2 mps 754 mmHg 56%
    Show more